ALOS-2

Last updated on Fri Feb 06 2026 00:02:16 GMT+0000 (Coordinated Universal Time)

1 39766U 14029A 26036.72854250 .00000681 00000+0 98085-4 0 9995 2 39766 97.9220 135.7857 0001504 96.2498 263.8885 14.79485955632149
UTC large
Height (km)
Speed (km/s)
/
Latitude / Longitude
Inclination (degrees)
Orbital Period (minutes)
Azimuth
Elevation
Range (km)
Doppler Factor

Next 0 passes for location: London (51.5072 / 0.1276)

Sorry there are no passes over London.